Location: Unspecified
(0.0000°N, 0.0000°E)
Time: 22:20:43
(UTC+00:00)

Courier 1B Rocket - Pass Details

Date: 16 December 2018
Orbit: 920 x 1202 km, 28.3° (Epoch: 18 January)

Event Time Altitude Azimuth Distance (km) Brightness Sun altitude
Rises 16:36:19 0° 300° (WNW) 4,040 8.7 18.2°
Reaches altitude 10° 16:39:06 10° 300° (WNW) 3,100 8.2 17.5°
Maximum altitude 16:46:55 90° 235° (SW) 1,200 5.8 15.8°
Drops below altitude 10° 16:54:45 10° 120° (ESE) 3,106 7.3 14.0°
Sets 16:57:33 0° 120° (ESE) 4,049 7.9 13.3°
